Regional Weather Roundup
Issued by NWS

Home | Current Version | Previous Version | Graphics & Text | Print | Product List | Glossary On
Versions: 1 2 3 4 5 6 7 8 9 10 11 12 13 14 15 16 17 18 19 20 21 22 23 24 25 26 27
000
ASUS45 KBOU 292007
RWRCO

WEATHER ROUNDUP FOR COLORADO
NATIONAL WEATHER SERVICE DENVER/BOULDER CO
200 PM MDT FRI JUL 29 2016

NOTE: "FAIR" INDICATES FEW OR NO CLOUDS BELOW 12000 FEET WITH NO
SIGNIFICANT WEATHER AND/OR OBSTRUCTIONS TO VISIBILITY.

COZ001>005-013-030-031-292100-
...NORTHWEST COLORADO...

CITY           SKY/WX    TMP DP  RH WIND       PRES   REMARKS
CRAIG          FAIR      89  27  10 VRB7      30.18F
HAYDEN         FAIR      82  28  14 SE3       30.22F
MEEKER         FAIR      88  37  16 SW8       30.19F
MOUNT WERNER   NOT AVBL
STEAMBOAT SPGS FAIR      83  32  15 W9        30.24S
WALDEN         FAIR      75  30  19 S6        30.35F
$$

COZ006>008-011-292100-
...WEST CENTRAL VALLEYS...

CITY           SKY/WX    TMP DP  RH WIND       PRES   REMARKS
GRAND JUNCTION FAIR      97  32  10 VRB3      30.04F
MONTROSE       FAIR      92  33  12 NW5G16    30.15F
EAGLE          SUNNY     88  30  12 CALM      30.21F
RIFLE          FAIR      93  33  12 S8        30.10F
DELTA          NOT AVBL
NUCLA          NOT AVBL
$$

COZ017>023-064>068-292100-
...SOUTHWEST COLORADO...

CITY           SKY/WX    TMP DP  RH WIND       PRES   REMARKS
DURANGO        FAIR      92  33  12 NW15      30.19F
CORTEZ         FAIR      95  34  11 NE9       30.11F
PAGOSA SPRINGS LGT RAIN  82  32  16 SW8       30.28F
TELLURIDE      FAIR      77  27  16 CALM      30.45S
WOLF CREEK PAS FAIR      63  28  27 N17G28    30.69S THUNDER
$$

COZ009-010-012-014-032>034-037-058>063-292100-
...CENTRAL COLORADO...

CITY           SKY/WX    TMP DP  RH WIND       PRES   REMARKS
ASPEN          FAIR      83  28  13 VRB3G21   30.30F
BUENA VISTA    FAIR      86  15   7 N20G25    30.28S
COPPER MTN     PTSUNNY   64  19  17 NW12G24   30.67S
BERTHOUD PASS  FAIR      55  41  58 N15G26    30.69S
COTTONWOOD PAS FAIR      84  -4   3 CALM      30.46R
GUNNISON       FAIR      82  30  15 N17G23    30.31F
KREMMLING      FAIR      84  14   7 W7        30.28F
LEADVILLE      FAIR      74  11   9 W20G32    30.47S
MONARCH PASS   PTSUNNY   64  19  17 MISG      30.75R
SALIDA         FAIR      91   8   4 NW26G33   30.29F
SUNLIGHT       FAIR      72  32  23 MISG      30.61S
WILKERSON PASS PTSUNNY   64  32  29 NE7       30.62S
$$

COZ069>075-292100-
...SAN LUIS VALLEY/SANGRE DE CRISTO MOUNTAINS...

CITY           SKY/WX    TMP DP  RH WIND       PRES   REMARKS
ALAMOSA        FAIR      89  30  12 N12G21    30.25F
LA VETA PASS   FAIR      75  46  35 NE9G18    30.51F
SAGUACHE       FAIR      88  25  10 N12G29    30.28F
$$

COZ035-036-038>040-292100-
...NORTHERN COLORADO FRONT RANGE...

CITY           SKY/WX    TMP DP  RH WIND       PRES   REMARKS
DENVER INTL AP PTSUNNY   83  55  38 MISG      30.16F
DMNS CITY PARK   N/A     81  55  39 E5G13     30.15F
AURORA         MOSUNNY   82  56  39 E3        30.18F
FRONT RANGE AP PTSUNNY   84  54  34 N6        30.18S
ERIE MUNI ARPT FAIR      83  53  36 E7        30.16F
BOULDER MUN AP NOT AVBL
CENTENNIAL     FAIR      80  53  39 VRB6      30.20F
BROOMFIELD     PTSUNNY   79  55  44 VRB6      30.21S
LONGMONT       NOT AVBL
$$

COZ041-046-047-076>085-087-088-292100-
...PIKES PEAK/PALMER DIVIDE AND SOUTHERN FOOTHILLS...

CITY           SKY/WX    TMP DP  RH WIND       PRES   REMARKS
COLO. SPRINGS  PTSUNNY   76  58  53 S7G17     30.24F
A. F. ACADEMY  MOSUNNY   78  56  47 SE10G20   30.24F
SCHRIEVER AFB  NOT AVBL
ELLICOTT       NOT AVBL
FALCON         NOT AVBL
FORT CARSON    LGT RAIN  74  57  56 SE2       30.21F
LIMON          FAIR      78  57  48 S12G26    30.20S
MONUMENT HILL  FAIR      73  52  46 NE3       30.29F
TRINIDAD       NOT AVBL
$$

COZ042>045-048>051-090-091-292100-
...NORTHEAST COLORADO...

CITY           SKY/WX    TMP DP  RH WIND       PRES   REMARKS
GREELEY ARPT   FAIR      82  57  42 SE13      30.15F
AKRON          FAIR      77  55  46 SE15      30.17F
BURLINGTON     FAIR      77  60  55 SE17      30.16F
WRAY           FAIR      82  54  36 SE10      30.13F
STERLING       NOT AVBL
HOLYOKE        NOT AVBL
FORT MORGAN    NOT AVBL
$$

COZ086-089-092>099-292100-
...SOUTHEAST COLORADO...

CITY           SKY/WX    TMP DP  RH WIND       PRES   REMARKS
PUEBLO         FAIR      84  58  40 E10       30.13F
LA JUNTA       FAIR      82  62  50 E17G26    30.11F
LAMAR          PTSUNNY   82  62  50 E14G22    30.10F
SPRINGFIELD      N/A     81  62  52 SE16G23   30.14F
$$




USA.gov is the U.S. government's official web portal to all federal, state and local government web resources and services.